Location: UFOWorks Observatory
(42.1050°N, 72.2350°W)
Time: 06:51:15
(UTC-04:00)

ISS - Visible Passes

Search period start: 25 July 2017 00:00
Search period end: 04 August 2017 00:00
Orbit: 400 x 408 km, 51.6° (Epoch: 25 July)

Date Brightness Start Highest point End Pass type
(mag) Time Alt. Az. Time Alt. Az. Time Alt. Az.
25 Jul -0.7 00:21:04 10° NW 00:23:06 15° N 00:25:08 10° NE visible
25 Jul -1.3 01:57:45 10° NW 02:00:26 23° NNE 02:03:07 10° ENE visible
25 Jul -4.0 03:33:56 10° WNW 03:37:11 74° SW 03:40:26 10° SE visible
25 Jul -2.5 21:50:17 10° W 21:53:23 41° NNW 21:56:30 10° NE visible
25 Jul -0.8 23:28:19 10° NW 23:30:29 16° N 23:32:40 10° NE visible
26 Jul -0.8 01:05:30 10° NW 01:06:55 16° N 01:06:55 16° N visible
26 Jul -3.5 20:57:44 10° WSW 21:00:59 71° NNW 21:04:13 10° NE visible
26 Jul -1.0 22:35:26 10° WNW 22:37:54 19° NNW 22:40:20 10° NE visible
27 Jul -0.8 00:13:08 10° NW 00:15:16 16° N 00:15:41 16° NNE visible
27 Jul -1.4 21:42:34 10° WNW 21:45:19 25° NNW 21:48:05 10° NE visible
27 Jul -0.7 23:20:36 10° NW 23:22:37 15° N 23:24:38 10° NE visible
28 Jul -0.5 00:57:08 10° NW 00:57:20 11° NW 00:57:20 11° NW visible
28 Jul -2.1 20:49:46 10° W 20:52:48 35° NNW 20:55:50 10° NE visible
28 Jul -0.8 22:27:51 10° NW 22:29:57 16° N 22:32:04 10° NE visible
29 Jul -0.9 00:04:52 10° NW 00:06:28 18° N 00:06:28 18° N visible
29 Jul -1.0 21:34:58 10° WNW 21:37:19 18° NNW 21:39:40 10° NE visible
29 Jul -1.1 23:12:30 10° NW 23:14:42 17° N 23:15:39 15° NNE visible
30 Jul -1.3 20:42:02 10° WNW 20:44:42 22° NNW 20:47:21 10° NE visible
30 Jul -0.9 22:19:59 10° NW 22:22:01 15° N 22:24:03 10° NE visible
30 Jul -0.9 23:56:24 10° NW 23:57:29 17° NNW 23:57:29 17° NNW visible
31 Jul -1.0 21:27:16 10° NW 21:29:19 15° N 21:31:23 10° NE visible
31 Jul -1.5 23:04:05 10° NW 23:06:40 21° NNE 23:06:42 21° NNE visible
01 Aug -1.0 20:34:23 10° NW 20:36:38 17° N 20:38:53 10° NE visible
01 Aug -1.2 22:11:44 10° NW 22:14:01 17° N 22:15:57 12° NE visible
01 Aug -0.8 23:47:52 10° NW 23:48:34 15° NW 23:48:34 15° NW visible
02 Aug -1.1 21:19:14 10° NW 21:21:18 16° N 21:23:22 10° NE visible
02 Aug -1.9 22:55:32 10° NW 22:57:50 29° N 22:57:50 29° N visible
03 Aug -1.8 22:03:12 10° NW 22:05:53 23° NNE 22:07:06 19° NE visible
03 Aug -0.7 23:39:23 10° WNW 23:39:43 12° WNW 23:39:43 12° WNW visible
